Weather History for Morristown, NJ

Change the Weather History Date:

Saturday, May 4, 2013

  Actual Average Record
Temperature  
Mean Temperature 53 °F -  
Max Temperature 69 °F 68 °F 93 °F (2001)
Min Temperature 37 °F 43 °F 28 °F (1941)
Degree Days  
Heating Degree Days 12    
Growing Degree Days 3 (Base 50)    
Moisture  
Dew Point 39 °F    
Average Humidity 76    
Maximum Humidity 100    
Minimum Humidity 31    
Precipitation  
Precipitation 0.00 in - - ()
Sea Level Pressure  
Sea Level Pressure 30.31 in    
Wind  
Wind Speed 2 mph (SE)    
Max Wind Speed 15 mph    
Max Gust Speed 24 mph    
Visibility 7 miles    
Events Fog    
Averages and records for this station are not official NWS values.
T = Trace of Precipitation, MM = Missing Value Source: NWS Daily Summary

Daily Weather History Graph

Daily Weather History Graph

Search for Another Location

Airport:

Trip Planner

Search our weather history database for the weather conditions in past years. The results will help you decide how hot, cold, wet, or windy it might be!

Date:

Astronomy

May. 04, 2013 Rise Set
Actual Time 5:52 AM EDT 7:57 PM EDT
Civil Twilight 5:22 AM EDT 8:27 PM EDT
Nautical Twilight 4:45 AM EDT 9:04 PM EDT
Astronomical Twilight 4:05 AM EDT 9:44 PM EDT
Moon 2:51 AM EDT (5/4) 2:50 PM EDT (5/4)
Length of Visible Light 15h 05m
Length of Day
14h 05m
Waning Crescent, 27% of the Moon is Illuminated
May 4
Waning Crescent
May 9
New
May 18
First Quarter
May 25
Full
May 31
Last Quarter

Hourly Weather History & Observations

Time (EDT) Temp. Dew Point Humidity Pressure Visibility Wind Dir Wind Speed Gust Speed Precip Events Conditions
12:15 AM 44.6 °F 41.0 °F 87% 30.38 in 7.0 mi Calm Calm - N/A   Clear
12:35 AM 42.8 °F 39.2 °F 87% 30.38 in 10.0 mi Calm Calm - N/A   Clear
12:55 AM 42.8 °F 39.2 °F 87% 30.38 in 1.5 mi Calm Calm - N/A   Mist
1:15 AM 42.8 °F 39.2 °F 87% 30.37 in 7.0 mi Calm Calm - N/A   Clear
1:35 AM 42.8 °F 39.2 °F 87% 30.36 in 1.2 mi Calm Calm - N/A   Mist
1:55 AM 41.0 °F 39.2 °F 93% 30.36 in 1.0 mi Calm Calm - N/A   Mist
2:15 AM 41.0 °F 39.2 °F 93% 30.34 in 0.8 mi Calm Calm - N/A   Mist
2:35 AM 41.0 °F 39.2 °F 93% 30.34 in 0.5 mi Calm Calm - N/A Fog Fog
2:55 AM 41.0 °F 39.2 °F 93% 30.33 in 0.8 mi Calm Calm - N/A   Mostly Cloudy
3:15 AM 41.0 °F 37.4 °F 87% 30.33 in 2.0 mi Calm Calm - N/A   Scattered Clouds
3:35 AM 39.2 °F 37.4 °F 93% 30.32 in 2.5 mi Calm Calm - N/A   Clear
3:55 AM 39.2 °F 37.4 °F 93% 30.31 in 4.0 mi Calm Calm - N/A   Clear
4:15 AM 39.2 °F 37.4 °F 93% 30.31 in 5.0 mi Calm Calm - N/A   Clear
4:35 AM 39.2 °F 37.4 °F 93% 30.31 in 10.0 mi Calm Calm - N/A   Clear
4:55 AM 39.2 °F 35.6 °F 87% 30.31 in 7.0 mi Calm Calm - N/A   Clear
5:15 AM 39.2 °F 35.6 °F 87% 30.31 in 1.0 mi Calm Calm - N/A   Mist
5:35 AM 39.2 °F 35.6 °F 87% 30.31 in 1.2 mi Calm Calm - N/A   Mist
5:55 AM 39.2 °F 35.6 °F 87% 30.31 in 10.0 mi Calm Calm - N/A   Clear
6:15 AM 37.4 °F 35.6 °F 93% 30.32 in 1.2 mi Calm Calm - N/A   Mist
6:35 AM 39.2 °F 37.4 °F 93% 30.32 in 2.0 mi Calm Calm - N/A   Clear
6:45 AM 39.2 °F 39.2 °F 100% 30.32 in 10.0 mi Calm Calm - N/A   Clear
7:45 AM 46.4 °F 44.6 °F 93% 30.32 in 10.0 mi Calm Calm - N/A   Clear
8:45 AM 55.4 °F 44.6 °F 67% 30.32 in 10.0 mi NE 6.9 mph - N/A   Clear
9:45 AM 60.8 °F 41.0 °F 48% 30.32 in 10.0 mi Calm Calm - N/A   Clear
10:45 AM 62.6 °F 39.2 °F 42% 30.31 in 10.0 mi East 6.9 mph - N/A   Clear
11:45 AM 64.4 °F 39.2 °F 40% 30.30 in 10.0 mi East 10.4 mph 17.3 mph N/A   Clear
12:45 PM 64.4 °F 39.2 °F 40% 30.29 in 10.0 mi SE 6.9 mph 17.3 mph N/A   Clear
1:50 PM 69.8 °F 37.4 °F 31% 30.27 in 10.0 mi ESE 10.4 mph 21.9 mph N/A   Clear
2:45 PM 68.0 °F 39.2 °F 35% 30.25 in 10.0 mi ESE 8.1 mph 16.1 mph N/A   Clear
3:45 PM 66.2 °F 42.8 °F 43% 30.23 in 10.0 mi SSE 15.0 mph 21.9 mph N/A   Clear
4:45 PM 64.4 °F 41.0 °F 42% 30.24 in 10.0 mi South 13.8 mph 24.2 mph N/A   Clear
5:45 PM 59.0 °F 41.0 °F 51% 30.24 in 10.0 mi SE 12.7 mph 20.7 mph N/A   Partly Cloudy
6:45 PM 55.4 °F 41.0 °F 58% 30.26 in 10.0 mi South 10.4 mph - N/A   Clear
7:45 PM 53.6 °F 41.0 °F 62% 30.27 in 10.0 mi SSE 6.9 mph - N/A   Clear
8:45 PM 50.0 °F 41.0 °F 71% 30.28 in 10.0 mi SE 3.5 mph - N/A   Clear
9:45 PM 48.2 °F 41.0 °F 76% 30.30 in 10.0 mi SSE 4.6 mph - N/A   Clear
10:55 PM 46.4 °F 39.2 °F 76% 30.30 in 10.0 mi Calm Calm - N/A   Clear
11:15 PM 44.6 °F 39.2 °F 81% 30.29 in 10.0 mi Calm Calm - N/A   Clear
11:35 PM 42.8 °F 39.2 °F 87% 30.29 in 7.0 mi Calm Calm - N/A   Clear
11:55 PM 42.8 °F 39.2 °F 87% 30.30 in 7.0 mi Calm Calm - N/A   Clear